Regional Weather Roundup
Issued by NWS

Home | Current Version | Previous Version | Graphics & Text | Print | Product List | Glossary On
Versions: 1 2 3 4 5 6 7 8 9 10 11 12 13 14 15 16 17 18 19 20 21 22 23 24 25 26 27 28 29 30 31 32 33 34 35 36 37 38 39 40 41 42 43 44 45 46 47 48 49 50
000
ASUS43 KLSX 272359
RWRMO

WEATHER SUMMARY FOR MISSOURI
NATIONAL WEATHER SERVICE SPRINGFIELD MO
700 PM CDT MON JUL 27 2015

NOTE: "FAIR" INDICATES FEW OR NO CLOUDS BELOW 12,000 FEET WITH NO
       SIGNIFICANT WEATHER AND/OR OBSTRUCTIONS TO VISIBILITY.
       CURRENT SKY AND/OR WEATHER CONDITIONS ARE NOT AVAILABLE FOR
       CHILLICOTHE AND FARMINGTON.

MOZ001>031-035>038-043-044-053-054-280100-
...NORTHERN AND WESTERN MISSOURI...

CITY           SKY/WX    TMP DP  RH WIND       PRES   REMARKS
KANSAS CTY INT PTSUNNY   90  77  65 S8        29.87S HX 103
6HR MIN TEMP:  85; 6HR MAX TEMP:  91;

KANSAS C DTWN  MOSUNNY   93  73  52 S13       29.85S HX 102
6HR MIN TEMP:  89; 6HR MAX TEMP:  95;

LEE`S SUMMIT   SUNNY     92  72  51 S9        29.89R HX  99
6HR MIN TEMP:  88; 6HR MAX TEMP:  92;

ST JOSEPH      MOSUNNY   89  78  70 SE9       29.85S HX 103
6HR MIN TEMP:  85; 6HR MAX TEMP:  91;

KIRKSVILLE     CLOUDY    74  69  85 E10       29.96F
6HR MIN TEMP:  72; 6HR MAX TEMP:  90; 6HR PCP:  0.33;


$$
MOZ066>068-077>081-088>096-101>105-280100-
...SOUTHWEST MISSOURI...

CITY           SKY/WX    TMP DP  RH WIND       PRES   REMARKS
SPRINGFIELD    SUNNY     90  75  61 S7        29.91F HX 100
6HR MIN TEMP:  90; 6HR MAX TEMP:  94;

JOPLIN         SUNNY     92  74  55 S8        29.90S HX 101
6HR MIN TEMP:  91; 6HR MAX TEMP:  96;


$$
MOZ032>034-039>042-045>050-055>058-069>072-280100-
...CENTRAL MISSOURI...

CITY           SKY/WX    TMP DP  RH WIND       PRES   REMARKS
COLUMBIA       SUNNY     91  76  61 W3        29.90S HX 103
6HR MIN TEMP:  89; 6HR MAX TEMP:  92;

JEFFERSON CITY SUNNY     93  73  52 W3        29.87S HX 102
6HR MIN TEMP:  90; 6HR MAX TEMP:  93;

ROLLA          SUNNY     90  75  61 SW6       29.90F HX 100
6HR MIN TEMP:  88; 6HR MAX TEMP:  92;

SEDALIA        MOSUNNY   92  75  57 SW5       29.90S HX 103
6HR MIN TEMP:  91; 6HR MAX TEMP:  95;

OSAGE BEACH    SUNNY     91  75  59 SW5       29.89F HX 102

$$
MOZ051-052-059>065-280100-
...EAST CENTRAL MISSOURI...

CITY           SKY/WX    TMP DP  RH WIND       PRES   REMARKS
ST LOUIS INTL  TSTM      80  72  76 W7        29.92R
6HR MIN TEMP:  80; 6HR MAX TEMP:  97; 6HR PCP:  0.03;

SPIRIT OF STL  PTSUNNY   81  72  74 CALM      29.91R THUNDER
6HR MIN TEMP:  81; 6HR MAX TEMP:  95; 6HR PCP: TRACE;

ST CHARLES     TSTM      76  71  85 S21G31    29.92R
6HR MIN TEMP:  76; 6HR MAX TEMP:  92; 6HR PCP:  0.13;


$$
MOZ072>076-082>087-097>100-106>115-280100-
...SOUTH CENTRAL AND SOUTHEAST MISSOURI...

CITY           SKY/WX    TMP DP  RH WIND       PRES   REMARKS
CAPE GIRARDEAU TSTM      83  78  85 N9        29.90R HX  93
6HR MIN TEMP:  83; 6HR MAX TEMP:  92; 6HR PCP: TRACE;

FARMINGTON     PTSUNNY   84  75  74 E12       29.96R HX  92
6HR MIN TEMP:  84; 6HR MAX TEMP:  93;

POPLAR BLUFF   MOSUNNY   89  78  70 S6        29.88F HX 103
6HR MIN TEMP:  89; 6HR MAX TEMP:  93;

WEST PLAINS    PTSUNNY   87  74  64 S8G21     29.96R HX  95
6HR MIN TEMP:  87; 6HR MAX TEMP:  94;


$$



USA.gov is the U.S. government's official web portal to all federal, state and local government web resources and services.